Showing default

GALILEO 11 (268), 41175

Orbit data source: Space-Track

GALILEO 11 (268), 41175 is a payload satellite owned by GNSS Agency (ESA) that was launched on Thu, 17 Dec 2015 UTC via a SOYUZ-ST-B launch vehicle from the French Guiana (FRGUI). Payload-class satellites include a variety of spacecraft equipped with specific instruments for various scientific and technological missions. These include communications satellites like Starlink; space stations such as the ISS; scientific satellites like the Hubble; Earth observation satellites from companies like Planet Labs, Umbra, and HawkEye 360; GPS; miniature CubeSats for education and research; and military/defense satellites.

Loading next visibility...
Identifier
41175, 2015-079B
Orbit
Active
Country
Flag of ESAESA
Related business
Manufacturer
OHB
Mission
Operational Civil Navigation
Bus & Motor
GALILEOSAT, AOCS
Mass
733 kg wet, 660 kg dry
Launch date (UTC)
2015-12-17 (10 years ago)
Launch vehicle
SOYUZ-ST-B
Launch site
French Guiana (FRGUI)
Object type
Payload
Rocket body
Debris
Shape & HBR
Box + 2 Pan, 7.4 m
Radar Cross Section
9.223 m², Large (>1 m²)

Expand to show TLE details & history
Last TLE update: 21 hours ago

TLE from 21 hours ago
0 GALILEO 11 (268)
1 41175U 15079B   25260.49763881  .00000021  00000-0  00000-0 0  9994
2 41175  55.6559 108.7452 0002849  15.0546 345.0456  1.70473811 60540
Epoch: 2025-09-17T11:56Z
TLE epoch observation values (Epoch: 2025-09-17T11:56:35.993Z)
Latitude
0.00008°
Longitude
-67.0642°
Altitude
23,214.348 km
Speed
3.671 km/s
True Right ascension
07h 15m 02s
True Declination
0° 00' 00"
Sunlit
Object was in daylight at epoch
Visualization orbit readout
Latitude
Unknown
Longitude
Unknown
Altitude
Unknown
Speed
Unknown
Apparent Right ascension
Unknown
Apparent Declination
Unknown
Sunlit
N/A
Visualization observer readout
Local Sidereal Time
01:45:35
Azimuth
Unknown
Elevation
Unknown
Doppler factor
Unknown
Orbital elements
Apogee altitude
23,230.623 km
Perigee altitude
23,213.756 km
Semi-major axis
29,600.326 km
Eccentricity
0.00028
Inclination
55.6559°
RAAN
108.7452°
Arg. of periapsis
15.0546°
True anomaly
345.03717°
Mean anomaly
345.0456°
Eccentric anomaly
345.04139°
Mean motion
0.42619 °/min
Orbital period
844.7 mins
BSTAR
0
Loading maneuver chart data...
Computing Atmospheric mass density...
Loading historical data...
Loading historical data...
Loading historical data...
Loading historical data...
Loading historical data...
Loading historical data...
Loading historical data...
Other satellites on launch #79 in the year 2015 (2015-12-17 UTC)

Documentation

Showing up to 5 results
|